Location: Asheville, NC
(35.6000°N, 82.5500°W)
Time: 09:05:53
(UTC-04:00)

Vanguard 3 - Pass Details

Date: 09 December 2017
Orbit: 508 x 3264 km, 33.3° (Epoch: 26 April)

Event Time Altitude Azimuth Distance (km) Brightness Sun altitude
Rises 18:41:29 0° 273° (W) 3,029 11.5 -16.7°
Reaches altitude 10° 18:43:33 10° 265° (W) 2,306 10.7 -17.1°
Maximum altitude 18:48:33 39° 196° (SSW) 1,504 8.7 -18.1°
Drops below altitude 10° 18:56:46 10° 132° (SE) 3,802 10.2 -19.7°
Enters shadow 19:00:04 - 127° (SE) 4,916 10.8 -20.3°
Sets 19:01:11 0° 126° (SE) 5,286 - -20.6°
